Airfield :
LOGIN :

Register | Disclaimer

   EN    FR    IT 

 










Legend :    VFR   Marginal VFR   IFR   Intensive IFR   Very Intensive IFR
Visi :
Ceiling :
>= 8 km
>= 3000ft
5 to 8 km
1000 to 3000 ft
1500m to 5 km
500 to 1000 ft
800 to 1500m
200 to 500 ft
< 800m
< 200 ft
Symbols :   Thunderstorms  Fog  Heavy snow  Heavy precipitations  Wind > 20 kt
SIGMETs :     Misc.  Thunderstorms  Icing  Turbulence  Mountain Waves  Volcanic Ashes







- Airport Elevation : 22 ft
- IATA code : LDY
- Download approach charts


EGAE - Londonderry Eglington

CURRENT METAR :
  • 181550Z 11008KT 8000 FEW028 18/10 Q1024

EXPIRED METARs :
  • 181520Z 11007KT 7000 FEW028 18/11 Q1024
  • 181450Z 13010KT 7000 FEW028 17/10 Q1024
  • 181420Z 12009KT 6000 FEW025 17/11 Q1024
  • 181350Z 13011KT 6000 FEW025 17/11 Q1024
  • 181320Z 13012KT 6000 FEW020 17/11 Q1024

TAF TAF EGAE
Valid from the 18 at 15:00 until the 18 at 21:00 UTC


181412Z 1815/1821 10007KT 6000 FEW025
PROB30 1815/1821 9999
No reported NOTAMs for that airfield.



MET'MAP, your aeronautical weather chart ! - Copyright ORBIFLY December 2007 - Disclaimer

ORBIFLY MET'MAP TEAM :

Programming & Development : Alexandra Zaïnal
Concept & Development : Baudouin d'Aumeries
Co-Development & Prog : Marc-Olivier Méhu
Technical & hardware support : Manuel Goepfert

Contact : metmap@orbifly.com




SOURCES & CREDITS :

   NOAA